Location: *
(51.1248°S, 108.4023°W)
Time: 04:17:42
(UTC+00:00)

Cosmos 2278 Rocket - Pass Details

Date: 28 October 2021
Orbit: 841 x 845 km, 71.0° (Epoch: 01 December)

Event Time Altitude Azimuth Distance (km) Brightness Sun altitude
Exits shadow 05:33:25 50° 53° (NE) 1,082 2.4 -23.1°
Maximum altitude 05:33:51 51° 69° (ENE) 1,068 2.4 -23.1°
Drops below altitude 10° 05:39:22 10° 142° (SE) 2,497 5.0 -23.5°
Sets 05:41:54 0° 147° (SSE) 3,439 5.9 -23.6°
